Weather History for KTBN - March, 2013

Change the Weather History Date:

Thursday, March 7, 2013

  Actual Average (KVIH) Record (KVIH)
Temperature  
Mean Temperature 40 °F 42 °F  
Max Temperature 55 °F 53 °F 83 °F (1974)
Min Temperature 25 °F 32 °F 0 °F (1899)
Degree Days  
Heating Degree Days 25 23  
Month to date heating degree days 168  
Since 1 July heating degree days 3958  
Cooling Degree Days 0 0  
Month to date cooling degree days 0  
Year to date cooling degree days 0  
Moisture  
Dew Point 26 °F    
Average Humidity 61    
Maximum Humidity 86    
Minimum Humidity 32    
Precipitation  
Precipitation 0.00 in 0.09 in 1.25 in (1995)
Month to date precipitation 0.60  
Year to date precipitation 4.70  
Sea Level Pressure  
Sea Level Pressure 30.30 in    
Wind  
Wind Speed 7 mph (ESE)    
Max Wind Speed 15 mph    
Max Gust Speed -    
Visibility 10 miles    
Events      
T = Trace of Precipitation, MM = Missing Value Source: NWS Daily Summary

Daily Weather History Graph

Daily Weather History Graph

Search for Another Location

Airport or City:

Trip Planner

Search our weather history database for the weather conditions in past years. The results will help you decide how hot, cold, wet, or windy it might be!

Date:

Astronomy

Mar. 07, 2013 Rise Set
Actual Time 6:31 AM CST 6:08 PM CST
Civil Twilight 6:04 AM CST 6:34 PM CST
Nautical Twilight 5:34 AM CST 7:04 PM CST
Astronomical Twilight 5:04 AM CST 7:35 PM CST
Moon 3:27 AM CST (3/7) 2:00 PM CST (3/7)
Length of Visible Light 12h 29m
Length of Day
11h 37m
Waning Crescent, 20% of the Moon is Illuminated
Mar 7
Waning Crescent
Mar 11
New
Mar 19
First Quarter
Mar 27
Full
Apr 2
Last Quarter

Hourly Weather History & Observations

Time (CST) Temp. Windchill Dew Point Humidity Pressure Visibility Wind Dir Wind Speed Gust Speed Precip Events Conditions
12:58 AM 26.1 °F 20.5 °F 21.7 °F 84% 30.33 in 10.0 mi ENE 4.6 mph - N/A   Scattered Clouds
1:58 AM 26.4 °F 20.9 °F 21.9 °F 83% 30.35 in 10.0 mi ENE 4.6 mph - N/A   Mostly Cloudy
2:58 AM 27.0 °F 20.5 °F 22.1 °F 82% 30.35 in 10.0 mi ESE 5.8 mph - N/A   Overcast
3:58 AM 26.8 °F 19.3 °F 22.1 °F 83% 30.33 in 10.0 mi East 6.9 mph - N/A   Overcast
4:58 AM 27.1 °F 18.9 °F 21.9 °F 81% 30.33 in 10.0 mi East 8.1 mph - N/A   Overcast
5:58 AM 26.8 °F 21.4 °F 22.3 °F 83% 30.34 in 10.0 mi ESE 4.6 mph - N/A   Overcast
6:58 AM 25.5 °F 19.9 °F 21.7 °F 86% 30.35 in 10.0 mi East 4.6 mph - N/A   Clear
7:58 AM 29.1 °F 21.3 °F 22.8 °F 77% 30.37 in 10.0 mi SE 8.1 mph - N/A   Clear
8:57 AM 33.3 °F 23.2 °F 24.8 °F 71% 30.35 in 10.0 mi SE 15.0 mph - N/A   Clear
9:58 AM 38.7 °F 32.9 °F 26.4 °F 61% 30.37 in 10.0 mi South 8.1 mph - N/A   Clear
10:58 AM 44.1 °F 40.1 °F 27.1 °F 51% 30.35 in 10.0 mi Variable 6.9 mph - N/A   Clear
11:58 AM 48.4 °F - 27.7 °F 45% 30.33 in 10.0 mi Variable 4.6 mph - N/A   Clear
12:58 PM 50.9 °F - 28.8 °F 43% 30.30 in 10.0 mi Variable 6.9 mph - N/A   Clear
1:58 PM 53.2 °F - 26.4 °F 35% 30.27 in 10.0 mi ESE 8.1 mph - N/A   Clear
2:58 PM 54.7 °F - 26.4 °F 34% 30.25 in 10.0 mi ESE 10.4 mph - N/A   Clear
3:58 PM 55.8 °F - 26.1 °F 32% 30.24 in 10.0 mi ESE 5.8 mph - N/A   Clear
4:58 PM 55.0 °F - 25.3 °F 32% 30.24 in 10.0 mi SE 9.2 mph - N/A   Clear
5:58 PM 51.3 °F - 25.9 °F 37% 30.23 in 10.0 mi SE 9.2 mph - N/A   Clear
6:58 PM 48.2 °F - 27.3 °F 44% 30.25 in 10.0 mi ESE 10.4 mph - N/A   Clear
7:58 PM 44.8 °F 40.4 °F 27.7 °F 51% 30.22 in 10.0 mi SSE 8.1 mph - N/A   Clear
8:58 PM 42.6 °F 38.4 °F 27.7 °F 56% 30.23 in 10.0 mi SE 6.9 mph - N/A   Clear
9:58 PM 41.5 °F 35.9 °F 28.9 °F 61% 30.25 in 10.0 mi SE 9.2 mph - N/A   Clear
10:58 PM 39.6 °F 32.5 °F 30.2 °F 69% 30.29 in 10.0 mi SE 11.5 mph - N/A   Clear
11:58 PM 37.8 °F 31.3 °F 30.7 °F 76% 30.28 in 10.0 mi SE 9.2 mph - N/A   Clear